STARLINK-5798 (56040 NORAD) Tracking and Keplerian Element Data

This shows tracking and keplerian element data for the satellite.

Feedback or suggestion? Click here.




ElementValue
Catalog56040
NameSTARLINK-5798
Epoch Orbit720
Epoch Day127.16871169
Epoch Year2023
RAAN291.5292
Inclination42.9998
Eccentricity0.0002022
Argument of Perigee265.4791
Mean Anonmoly94.5846
Mean Motion15.7134155
Decay Rate-1.084E-05
L11 56040U 23042BG 23127.16871169 -.00001084 00000+0 -48177-5 0 9996
L22 56040 42.9998 291.5292 0002022 265.4791 94.5846 15.71341550 7205



Live tracking and technical data element details for STARLINK-5798 (NORAD 56040). STARLINK-5798 can be tracked NOW for your location showing map with azimuth and elevation plus other details from your city location.







IsCatalogInMostPopularTable: catalog: 56040, numindb: 1
Update: records affected: 1



GetName: 56040 STARLINK-5798

Hit Count: updated at: Sat, 03 Jun 2023 18:24:32 GMT